Location: Arbon
(43.0005°N, 0.7472°E)
Time: 09:41:44
(UTC+00:00)

Vanguard 2 Rocket - Pass Details

Date: 29 November 2020
Orbit: 554 x 3325 km, 32.9° (Epoch: 21 January)

Event Time Altitude Azimuth Distance (km) Brightness Sun altitude
Rises 10:45:28 0° 265° (W) 7,309 11.4 23.9°
Reaches altitude 10° 10:50:42 10° 262° (W) 6,201 11.1 24.2°
Maximum altitude 11:08:51 56° 192° (SSW) 2,908 10.6 24.9°
Drops below altitude 10° 11:20:25 10° 118° (ESE) 4,117 10.8 25.1°
Sets 11:23:09 0° 114° (ESE) 4,797 11.0 25.2°
